[[{"header":{"parameterUnit":"m.s-1","parameterCategory":1,"la1":30.2991,"la2":30.254,"lo1":-89.0895,"lo2":-89.0444,"dy":0.0017,"dx":0.0017,"nx":28,"ny":28,"refTime":"2024-05-26T21:00:00:Z","depth":0,"parameterNumber":2,"parameterNumberName":"U-component_of_WINDS"},"data":[0,0,0,0,0,0,0,0,0,0,0,0,0,0,0,0,0,0,0,0,0,0,0,0,0,0,0,0,0,0,0,0,0,0,0,0,0,0,0,0,0,0,0,0,0,0,0,0,0,0,0,0,0,0,0,0,0,0,0.514,0.5142,0,0.5344,0.5347,0.5349,0.5425,0.5425,0.5424,0.5423,0.5638,0.5644,0.565,0,0,0,0,0,0,0,0,0,0,0,0,0,0.482,0.4825,0.5139,0.5142,0.5145,0.5344,0.5347,0.535,0.5425,0.5425,0.5424,0.5423,0.5636,0.5643,0.5651,0,0,0,0,0,0,0,0,0,0,0,0,0,0.4985,0.4827,0.5139,0.5206,0.5214,0.5343,0.5347,0.535,0.5426,0.5425,0.5424,0.5423,0.5633,0.5642,0.5652,0.573,0,0,0.5681,0.5685,0,0,0,0,0,0,0,0,0.4976,0.4997,0.5194,0.5202,0.5211,0.5358,0.5313,0.5478,0.5426,0.5346,0.5423,0.5422,0.5546,0.5562,0.5603,0.574,0.575,0.5682,0.5687,0.5692,0.5694,0,0,0,0,0,0,0,0.4964,0.4988,0.5221,0.5197,0.5207,0.5228,0.5251,0.5344,0.5449,0.5352,0.5358,0.5381,0.555,0.5594,0.5609,0.5753,0.5681,0.569,0.5696,0.5699,0.5967,0.5968,0,0,0,0,0,0,0.4941,0.4978,0.5214,0.5227,0.5088,0.5235,0.526,0.5312,0.5448,0.5468,0.5382,0.5384,0.5578,0.5598,0.5617,0.5719,0.5691,0.57,0.5706,0.5966,0.5967,0.5969,0,0,0,0,0,0,0.4934,0.4961,0.5206,0.5104,0.5137,0.5241,0.5299,0.5317,0.536,0.547,0.549,0.5407,0.5578,0.5603,0.5702,0.5727,0.5705,0.5713,0.5964,0.5966,0.5968,0.5923,0,0,0,0,0,0,0.4924,0.4958,0.4987,0.5104,0.5142,0.5286,0.5301,0.5321,0.5376,0.538,0.5499,0.5518,0.5579,0.5687,0.5711,0.574,0.5721,0.5962,0.5965,0.5967,0.5923,0.5923,0.5924,0,0,0,0,0,0.4912,0.4967,0.4988,0.5016,0.5181,0.5287,0.5309,0.5377,0.5377,0.5409,0.548,0.5514,0.572,0.5696,0.5724,0.5756,0.5961,0.5964,0.5967,0.5922,0.5923,0.5924,0,0,0,0,0,0,0.4852,0.4984,0.5009,0.5103,0.5183,0.5299,0.5341,0.5376,0.5459,0.546,0.5543,0.5569,0.5661,0.5719,0.569,0.5841,0.5843,0.5852,0.58,0.5801,0.5802,0.5787,0.5729,0,0,0,0,0,0.4849,0.4922,0.5034,0.5107,0.5145,0.5236,0.5285,0.5331,0.5418,0.5452,0.5531,0.5615,0.57,0.5754,0.5837,0.5931,0.5959,0.5967,0.5968,0.5968,0.5975,0.6031,0.6036,0.5979,0.5979,0.5979,0,0,0.4845,0.4926,0.4967,0.5096,0.5164,0.524,0.5264,0.5343,0.5401,0.5465,0.5563,0.5623,0.5723,0.582,0.5867,0.5871,0.5997,0.5972,0.5971,0.5978,0.6035,0.604,0.6045,0.5981,0.5981,0.5981,0,0,0.4876,0.4944,0.5012,0.5079,0.5181,0.5241,0.5257,0.5369,0.5412,0.551,0.556,0.5631,0.5774,0.5844,0.5898,0.5957,0.5992,0.5982,0.5985,0.6039,0.6044,0.6048,0.6071,0.6077,0.5988,0.5988,0.5988,0,0.4858,0.4973,0.5043,0.512,0.5176,0.5236,0.5308,0.537,0.5494,0.5532,0.5535,0.5716,0.5788,0.5903,0.5917,0.5958,0.5981,0.5969,0.6037,0.6042,0.6047,0.607,0.6078,0.5987,0.5987,0.5987,0.5987,0,0.4947,0.5026,0.5069,0.5187,0.5248,0.5321,0.5405,0.5458,0.5499,0.556,0.5661,0.5749,0.5852,0.5882,0.5923,0.6004,0.6004,0.602,0.6025,0.605,0.6072,0.6081,0.5984,0.5985,0.5985,0.5986,0,0,0.4945,0.5101,0.5116,0.5171,0.5288,0.5351,0.5428,0.5528,0.5573,0.5657,0.5725,0.5845,0.5862,0.5923,0.5973,0.602,0.6063,0.6031,0.6035,0.6035,0.6159,0.6146,0.6155,0.6086,0.6088,0.6089,0.6151,0,0.4993,0.5132,0.5198,0.5309,0.5384,0.5443,0.551,0.5591,0.5649,0.5723,0.5789,0.5873,0.5888,0.5926,0.5975,0.6047,0.6089,0.6043,0.6152,0.6155,0.6126,0.6166,0.6153,0.6207,0.616,0.6162,0.6163,0,0.5067,0.515,0.5267,0.5377,0.5411,0.547,0.5568,0.5637,0.573,0.577,0.5838,0.5887,0.5972,0.597,0.609,0.6057,0.6106,0.6148,0.6152,0.6166,0.6161,0.6183,0.6226,0.6234,0.6177,0.6176,0.6175,0,0.5055,0.5197,0.5286,0.5331,0.546,0.5501,0.5557,0.5649,0.5705,0.5791,0.5829,0.5923,0.5976,0.6049,0.6122,0.6113,0.6236,0.6239,0.6273,0.6272,0.6298,0.6295,0.635,0.6326,0.6326,0.6326,0.6326,0,0.5102,0.5172,0.5283,0.5337,0.5419,0.5495,0.5574,0.5635,0.5716,0.5785,0.5842,0.5907,0.5999,0.6075,0.6133,0.6225,0.6248,0.6284,0.6299,0.628,0.6275,0.6313,0.6312,0.6328,0.6328,0.6327,0.6327,0,0.5103,0.518,0.5281,0.5396,0.5426,0.5481,0.558,0.5637,0.5699,0.5786,0.5811,0.5908,0.6001,0.6081,0.6204,0.6243,0.6339,0.6356,0.6307,0.6315,0.6345,0.6341,0.6428,0.6444,0.6407,0.6407,0.6408,0,0.5128,0.5184,0.5304,0.5354,0.5409,0.5489,0.5547,0.5625,0.5683,0.5793,0.5837,0.5934,0.6016,0.6162,0.6245,0.634,0.6361,0.6384,0.6375,0.6355,0.6363,0.6359,0.6366,0.6385,0.6385,0.6385,0.6385,0,0.5166,0.5201,0.5281,0.5375,0.5442,0.552,0.5599,0.5637,0.5731,0.5793,0.5888,0.5952,0.6077,0.6173,0.6277,0.6337,0.6378,0.6387,0.64,0.6381,0.6351,0.637,0.6309,0.6385,0.6385,0.6385,0.6385,0.6385,0.5181,0.5234,0.5327,0.5415,0.5483,0.5556,0.5615,0.5685,0.5765,0.5872,0.5914,0.6011,0.6105,0.6249,0.6309,0.6388,0.6394,0.6413,0.6418,0.6422,0.6419,0.6337,0.6407,0.6407,0.6407,0.6407,0.6408,0,0.5222,0.5285,0.5365,0.5475,0.5545,0.5575,0.5665,0.5722,0.5806,0.589,0.5969,0.6079,0.6173,0.6263,0.6363,0.6408,0.6429,0.6432,0.643,0.6444,0.6407,0.6387,0.6413,0.6413,0.6413,0.6413,0.6413,0.6413,0.5252,0.5343,0.539,0.5516,0.5579,0.5674,0.5724,0.5793,0.586,0.598,0.6058,0.6116,0.6203,0.6309,0.6397,0.6421,0.6456,0.6454,0.6483,0.6448,0.6446,0.6445,0.6426,0.646,0.646,0.6513,0.6514,0.6514]},{"header":{"parameterUnit":"m.s-1","parameterCategory":1,"la1":30.2991,"la2":30.254,"lo1":-89.0895,"lo2":-89.0444,"dy":0.0017,"dx":0.0017,"nx":28,"ny":28,"refTime":"2024-05-26T21:00:00:Z","depth":0,"parameterNumber":3,"parameterNumberName":"V-component_of_WINDS"},"data":[0,0,0,0,0,0,0,0,0,0,0,0,0,0,0,0,0,0,0,0,0,0,0,0,0,0,0,0,0,0,0,0,0,0,0,0,0,0,0,0,0,0,0,0,0,0,0,0,0,0,0,0,0,0,0,0,0,0,5.6093,5.6094,0,5.6199,5.6201,5.6202,5.6197,5.6195,5.6194,5.6193,5.6291,5.6295,5.6299,0,0,0,0,0,0,0,0,0,0,0,0,0,5.5875,5.5879,5.6093,5.6094,5.6096,5.6199,5.6201,5.6202,5.6197,5.6195,5.6194,5.6192,5.629,5.6294,5.6299,0,0,0,0,0,0,0,0,0,0,0,0,0,5.5974,5.5881,5.6093,5.6106,5.6108,5.6199,5.6201,5.6202,5.6198,5.6195,5.6193,5.6191,5.6288,5.6294,5.63,5.6381,0,0,5.6318,5.6321,0,0,0,0,0,0,0,0,5.5969,5.5982,5.6103,5.6105,5.6108,5.6183,5.616,5.6262,5.6198,5.6163,5.6193,5.619,5.6256,5.6264,5.6289,5.6386,5.639,5.6319,5.6322,5.6325,5.6326,0,0,0,0,0,0,0,5.5962,5.5977,5.6135,5.6104,5.6107,5.6103,5.6115,5.6179,5.622,5.6166,5.6166,5.6179,5.6257,5.6283,5.6291,5.6391,5.6318,5.6324,5.6327,5.633,5.6561,5.6563,0,0,0,0,0,0,5.5953,5.5972,5.6131,5.6138,5.6032,5.6109,5.6122,5.6161,5.622,5.6227,5.6181,5.6179,5.6274,5.6284,5.6295,5.6395,5.6325,5.633,5.6334,5.6558,5.6561,5.6564,0,0,0,0,0,0,5.5949,5.5968,5.6127,5.6055,5.6075,5.6115,5.6159,5.6164,5.6191,5.6231,5.6237,5.6201,5.6273,5.6286,5.6361,5.6398,5.6333,5.6338,5.6555,5.6559,5.6563,5.6596,0,0,0,0,0,0,5.5943,5.5966,5.6,5.6056,5.6079,5.6194,5.6161,5.6168,5.6202,5.62,5.6252,5.6258,5.6272,5.6352,5.6367,5.6406,5.6343,5.6552,5.6557,5.6562,5.6592,5.6601,5.6608,0,0,0,0,0,5.5935,5.6002,5.6002,5.6021,5.6122,5.6196,5.6209,5.6227,5.6205,5.6238,5.6264,5.6256,5.6392,5.6359,5.6376,5.6417,5.655,5.6556,5.6561,5.6588,5.6599,5.6608,0,0,0,0,0,0,5.5945,5.601,5.601,5.6098,5.6142,5.6196,5.6238,5.6238,5.6286,5.6282,5.6298,5.631,5.6385,5.6408,5.6371,5.65,5.6467,5.6477,5.6482,5.6493,5.6501,5.6494,5.6348,0,0,0,0,0,5.5958,5.6017,5.6068,5.6141,5.6164,5.6197,5.623,5.624,5.6285,5.6303,5.6334,5.6375,5.6427,5.6461,5.6511,5.6595,5.6606,5.6631,5.6639,5.6646,5.6654,5.6701,5.6713,5.6583,5.6583,5.6583,0,0,5.5984,5.6027,5.6062,5.6144,5.618,5.6237,5.6212,5.6273,5.6316,5.631,5.6385,5.6409,5.6456,5.6536,5.6573,5.6557,5.6692,5.6653,5.6658,5.6663,5.6708,5.672,5.6731,5.6587,5.6586,5.6585,0,0,5.6063,5.6101,5.6167,5.6204,5.626,5.6282,5.6298,5.6352,5.6369,5.6444,5.6442,5.649,5.6579,5.6614,5.6642,5.6735,5.673,5.675,5.6793,5.6839,5.6849,5.6858,5.6892,5.6904,5.6758,5.6758,5.6758,0,5.6087,5.6178,5.6199,5.6263,5.6299,5.6301,5.6366,5.64,5.6467,5.649,5.6473,5.6587,5.6618,5.6707,5.673,5.6753,5.677,5.6745,5.6847,5.6856,5.6865,5.6897,5.691,5.676,5.676,5.676,5.676,0,5.6206,5.6268,5.6314,5.6385,5.6425,5.6489,5.6518,5.6555,5.6562,5.6585,5.6661,5.6699,5.6758,5.6779,5.6784,5.6869,5.6858,5.6843,5.6812,5.6879,5.691,5.6923,5.6764,5.6763,5.6762,5.6762,0,0,5.6293,5.6377,5.6394,5.6427,5.6489,5.6536,5.6598,5.666,5.6693,5.6738,5.6791,5.6867,5.6855,5.6888,5.6897,5.6937,5.7009,5.6917,5.6919,5.6934,5.7106,5.7118,5.7132,5.7006,5.7008,5.701,5.7102,0,5.6379,5.6496,5.6518,5.6619,5.6676,5.668,5.6734,5.6777,5.68,5.6849,5.6873,5.6928,5.6907,5.6927,5.6967,5.6992,5.7044,5.6985,5.7053,5.7056,5.7044,5.7148,5.716,5.7245,5.7114,5.7116,5.7118,0,5.6495,5.655,5.6658,5.6715,5.6739,5.6789,5.6848,5.6896,5.6943,5.6957,5.6995,5.7,5.7063,5.7028,5.7114,5.7074,5.7103,5.7119,5.7123,5.7131,5.7092,5.716,5.7273,5.7286,5.7137,5.7135,5.7134,0,5.655,5.6649,5.6728,5.6755,5.6823,5.6858,5.6887,5.6933,5.6969,5.7018,5.7042,5.7096,5.7126,5.7167,5.7186,5.7158,5.7271,5.7237,5.7283,5.7283,5.7308,5.7306,5.7429,5.7324,5.7324,5.7323,5.7323,0,5.6644,5.671,5.6754,5.6802,5.6876,5.6899,5.697,5.6997,5.7038,5.709,5.7093,5.7141,5.7162,5.7212,5.7226,5.7296,5.7309,5.732,5.7324,5.7321,5.732,5.7341,5.7336,5.7327,5.7326,5.7325,5.7325,0,5.6719,5.6751,5.6836,5.6895,5.6911,5.6963,5.7011,5.7056,5.708,5.7145,5.7161,5.7196,5.7255,5.7278,5.7348,5.7358,5.744,5.7437,5.7425,5.7426,5.7472,5.7468,5.7613,5.7633,5.7514,5.7515,5.7516,0,5.6778,5.683,5.6895,5.6932,5.6964,5.7023,5.7061,5.7084,5.7123,5.7182,5.722,5.728,5.733,5.7423,5.7453,5.7507,5.7507,5.7554,5.7515,5.7511,5.7509,5.7507,5.7513,5.7562,5.7563,5.7564,5.7565,0,5.688,5.6894,5.6951,5.7014,5.7061,5.711,5.7158,5.7187,5.7217,5.726,5.7324,5.7362,5.7437,5.7496,5.7552,5.7578,5.7576,5.7577,5.7591,5.7589,5.7581,5.7588,5.7447,5.7573,5.7573,5.7572,5.7571,5.7571,5.6949,5.6997,5.7051,5.7115,5.7154,5.72,5.7246,5.7277,5.7332,5.7397,5.7406,5.7474,5.7519,5.7596,5.7624,5.7675,5.7662,5.7682,5.7687,5.7692,5.7696,5.7572,5.7685,5.7685,5.7685,5.7684,5.7684,0,5.7053,5.7089,5.7148,5.7218,5.7267,5.7265,5.7318,5.7359,5.742,5.7465,5.7515,5.7587,5.7645,5.768,5.7738,5.7772,5.7773,5.7786,5.7785,5.7791,5.7704,5.7687,5.7785,5.7785,5.7785,5.7785,5.7785,5.7785,5.7113,5.7194,5.7214,5.7314,5.7348,5.7418,5.7449,5.749,5.7526,5.7609,5.7659,5.7683,5.7723,5.7784,5.7836,5.7845,5.7866,5.7881,5.7889,5.7807,5.7797,5.7787,5.7771,5.7885,5.7885,5.7972,5.7973,5.7973]}]]